Погода в Ликине

Россия / Владимирская область     55°56′30″N   41°04′52″E
темп.,
°C
ветер,
м/с
пор.,
м/с
влажн.,
%
обл.,
%
осадки,
мм/ч
давл.,
гПа
погр.,
м
22 мая, вс
вс2200:00+3св387099 0.0 1008212
03:000св26845 0.0 1007126
06:00+2св47733 0.0 1006299
09:00+7ссв45445 0.0 10051257
12:00+9ссв45375 0.0 10041690
15:00+9ссв5543100 0.0 10041797
18:00+6ссв565298 0.0 10041439
21:00+1с277317 0.0 1005164
23 мая, пн
пн2300:00−2ссз26855 0.0 1005121
03:00−2сз278968 0.0 1005155
06:00+1сз487499 0.0 1004559
09:00+4сз5856100 0.0 10031385
12:00+7сз585297 0.0 10031561
15:00+9сз5946100 0.0 10022018
18:00+8ссз41052100 0.0 10021716
21:00+4сз3856100 0.0 1002289
24 мая, вт
вт2400:00+3з2866100 0.0 1001233
03:00+2зсз41187100 0.1 1002966
06:00+1сз4998100 1.4 1003469
09:00+3сз368493 1.6 10041023
12:00+4ссз457599 0.5 10061219
15:00+5ссз4467100 0.7 10081210
18:00+6ссз356185 0.1 10091248
21:00+1сз26905 0.1 1011102
25 мая, ср
ср2500:00−1зсз239734 0.0 101248
03:00+2сз2791100 0.0 1013261
06:00+3сз368885 0.1 1014303
09:00+8сз455493 0.2 10141586
12:00+8сз445299 0.1 10141554
15:00+8зсз4557100 0.1 10141265
18:00+9сз455667 0.0 10141259
21:00+5з118081 0.0 101410
26 мая, чт
чт2600:00+4юз2376100 0.0 101456
03:00+2ююз2286100 0.0 101332
06:00+6зюз247389 0.0 1011162
09:00+10з345866 0.0 10101010
12:00+15зсз244768 0.0 10071767
15:00+17сз253998 0.0 10052238
18:00+13в3766100 0.0 1002217
21:00+11вюв41069100 0.0 1001481